Change the Weather History Date:

Tuesday, November 11, 2014

  Actual Average Record
Temperature  
Mean Temperature 51 °F 46 °F  
Max Temperature 69 °F 56 °F 78 °F (1931)
Min Temperature 32 °F 35 °F 19 °F (1954)
Degree Days  
Heating Degree Days 14 19  
Month to date heating degree days 170 193  
Since 1 July heating degree days 458 639  
Cooling Degree Days 0 0  
Month to date cooling degree days 0 0  
Year to date cooling degree days 958 895  
Growing Degree Days 1 (Base 50)    
Moisture  
Dew Point 38 °F    
Average Humidity 57    
Maximum Humidity 83    
Minimum Humidity 31    
Precipitation  
Precipitation 0.00 in 0.09 in 1.06 in (1995)
Month to date precipitation 0.43 1.10  
Year to date precipitation 30.63 33.96  
Sea Level Pressure  
Sea Level Pressure 29.98 in    
Wind  
Wind Speed 3 mph (SSE)    
Max Wind Speed 12 mph    
Max Gust Speed 16 mph    
Visibility 10 miles    
Events      
T = Trace of Precipitation, MM = Missing Value Source: NWS Daily Summary

Daily Weather History Graph

Daily Weather History Graph

Search for Another Location

Airport or City:

Trip Planner

Search our weather history database for the weather conditions in past years. The results will help you decide how hot, cold, wet, or windy it might be!

Date:

Astronomy

Nov. 11, 2014 Rise Set
Actual Time 6:51 AM EST 5:00 PM EST
Civil Twilight 6:22 AM EST 5:28 PM EST
Nautical Twilight 5:50 AM EST 6:00 PM EST
Astronomical Twilight 5:18 AM EST 6:32 PM EST
Moon 9:21 PM EST (11/11) 10:56 AM EST (11/11)
Length of Visible Light 11h 06m
Length of Day
10h 09m
Waning Gibbous, 77% of the Moon is Illuminated
Nov 11
Waning Gibbous
Nov 14
Last Quarter
Nov 22
New
Nov 29
First Quarter
Dec 6
Full

Hourly Weather History & Observations

Time (EST) Temp. Windchill Dew Point Humidity Pressure Visibility Wind Dir Wind Speed Gust Speed Precip Events Conditions
12:53 AM 43.0 °F - 35.1 °F 74% 30.06 in 10.0 mi Calm Calm - N/A   Clear
1:53 AM 39.9 °F - 33.1 °F 77% 30.06 in 10.0 mi Calm Calm - N/A   Clear
2:53 AM 37.9 °F 35.5 °F 32.0 °F 79% 30.06 in 10.0 mi WNW 3.5 mph - N/A   Clear
3:53 AM 37.0 °F - 32.0 °F 82% 30.07 in 9.0 mi Calm Calm - N/A   Clear
4:53 AM 36.0 °F - 30.9 °F 82% 30.07 in 9.0 mi Calm Calm - N/A   Clear
5:53 AM 36.0 °F - 30.9 °F 82% 30.07 in 8.0 mi Calm Calm - N/A   Clear
6:53 AM 33.1 °F - 28.9 °F 85% 30.07 in 9.0 mi Calm Calm - N/A   Clear
7:53 AM 37.0 °F - 32.0 °F 82% 30.07 in 7.0 mi Calm Calm - N/A   Clear
8:53 AM 46.0 °F - 39.0 °F 76% 30.07 in 6.0 mi Calm Calm - N/A   Haze
9:53 AM 52.0 °F - 39.9 °F 63% 30.05 in 10.0 mi WSW 4.6 mph - N/A   Clear
10:53 AM 57.9 °F - 39.0 °F 49% 30.02 in 10.0 mi South 3.5 mph - N/A   Clear
11:53 AM 62.1 °F - 39.0 °F 43% 29.98 in 10.0 mi SSE 9.2 mph - N/A   Clear
12:53 PM 66.0 °F - 37.9 °F 36% 29.94 in 10.0 mi Variable 5.8 mph - N/A   Clear
1:53 PM 68.0 °F - 39.9 °F 36% 29.93 in 10.0 mi SE 8.1 mph - N/A   Clear
2:53 PM 69.1 °F - 37.0 °F 31% 29.90 in 10.0 mi South 10.4 mph - N/A   Clear
3:53 PM 68.0 °F - 39.0 °F 35% 29.90 in 10.0 mi SE 9.2 mph - N/A   Clear
4:53 PM 64.0 °F - 44.1 °F 48% 29.91 in 10.0 mi SSE 5.8 mph - N/A   Clear
5:53 PM 61.0 °F - 45.0 °F 56% 29.91 in 10.0 mi SSE 4.6 mph - N/A   Clear
6:53 PM 60.1 °F - 46.0 °F 60% 29.91 in 10.0 mi SE 4.6 mph - N/A   Clear
7:53 PM 57.0 °F - 46.9 °F 69% 29.90 in 10.0 mi Calm Calm - N/A   Clear
8:53 PM 51.1 °F - 44.1 °F 77% 29.90 in 10.0 mi Calm Calm - N/A   Clear
9:53 PM 48.0 °F - 42.1 °F 80% 29.91 in 10.0 mi Calm Calm - N/A   Clear
10:53 PM 44.1 °F - 39.0 °F 82% 29.89 in 10.0 mi Calm Calm - N/A   Clear
11:53 PM 43.0 °F - 39.0 °F 86% 29.88 in 9.0 mi Calm Calm - N/A   Clear